Regional Weather Roundup
Issued by NWS Sioux Falls, SD

Home | Current Version | Previous Version | Graphics & Text | Print | Product List | Glossary Off
Versions: 1 2 3 4 5 6 7 8 9 10 11 12 13 14 15 16 17 18 19 20 21 22 23 24 25 26 27 28 29 30 31 32 33 34 35 36 37 38 39 40 41 42 43 44 45 46 47 48 49 50

000
ASUS43 KFSD 230310
RWRFSD

WEATHER ROUNDUP FOR SE SOUTH DAKOTA/SW MINNESOTA/NW IOWA
NATIONAL WEATHER SERVICE SIOUX FALLS SD
1000 PM CDT SAT JUL 22 2017

NOTE: "FAIR" INDICATES FEW OR NO CLOUDS BELOW 12,000 FEET WITH NO
SIGNIFICANT WEATHER AND OR OBSTRUCTIONS TO VISIBILITY.


SDZ038>040-050-052>070-230400-
SOUTHEAST SOUTH DAKOTA

CITY           SKY/WX    TMP DP  RH WIND       PRES   REMARKS
BROOKINGS      CLEAR     75  63  66 W3        29.91S
CHAMBERLAIN    CLEAR     81  60  48 NE3       29.94R
HURON          CLEAR     74  66  76 W3        29.90R
MADISON        FAIR      73  66  78 NW3       29.93R
MITCHELL       CLEAR     82  64  54 SW3       29.91R
SIOUX FALLS    PTCLDY    75  66  73 CALM      29.91R
WINNER         FAIR      80  54  40 NE9       29.95R
YANKTON        CLEAR     77  70  79 CALM      29.93R
$$

MNZ071-072-080-081-089-090-097-098-230400-
SOUTHWEST MINNESOTA

CITY           SKY/WX    TMP DP  RH WIND       PRES   REMARKS
FAIRMONT       CLEAR     74  70  87 CALM      29.89R
JACKSON        CLEAR     72  64  78 CALM      29.92R
LUVERNE        CLEAR     68  63  83 CALM      29.92R
MARSHALL       CLEAR     74  64  71 W3        29.88S
MONTEVIDEO     CLEAR     73  64  73 CALM      29.86S
PIPESTONE      CLEAR     73  64  73 CALM      29.92S
REDWOOD FALLS  CLEAR     78  64  61 CALM      29.86R
WINDOM         CLEAR     73  64  73 W6        29.90S
WORTHINGTON    CLEAR     70  64  81 W7        29.93R
$$

IAZ001>003-012>014-020>022-031-032-NEZ013-014-SDZ071-230400-
NORTHWEST IOWA

CITY           SKY/WX    TMP DP  RH WIND       PRES   REMARKS
CHEROKEE       CLEAR     71  69  94 CALM      29.92R
DENISON        MOCLDY    73  73 100 CALM      29.94R
ESTHERVILLE    CLEAR     70  69  97 W3        29.90R
ORANGE CITY    CLEAR     73  70  88 CALM      29.93R
SHELDON        CLEAR     68  66  94 CALM      29.90S
SIOUX CITY     FAIR      72  71  97 CALM      29.92R
SPENCER        CLEAR     71  68  90 W7        29.91R
STORM LAKE     CLEAR     73  70  88 W5        29.93R
$$

ABBREVIATIONS USED IN REMARKS
   TC - TEMPERATURE IN CELSIUS
  WCI - WIND CHILL INDEX
   HX - HEAT INDEX
  VSB - VISIBILITY





USA.gov is the U.S. government's official web portal to all federal, state and local government web resources and services.